Terug naar catalogus

COSMOS 2491 DEB

ActiefPO
NORAD 45130·DEBRIS·🇷🇺 Russia

Gelanceerd Dec 25, 2013 vanaf Plesetsk Cosmodrome

Loading…

Volgende Passages (komende 24 uur)

TLE

VerouderdSource: Space-Track

Epoch: Aug 23, 2026, 18:50 UTC

1 45130U 13076AC  26235.78535182  .00002100  00000-0  97154-2 0  9998
2 45130  82.4478  57.6162 0158957 317.1261  41.7530 12.72241888303280

Volg COSMOS 2491 DEB in realtime met AllMySat

Download on the App Store